Weather History for KLFK - December, 2012

Change the Weather History Date:

Saturday, December 8, 2012

  Actual Average Record
Temperature  
Mean Temperature 72 °F 51 °F  
Max Temperature 79 °F 62 °F 87 °F (1945)
Min Temperature 65 °F 41 °F 20 °F (1927)
Degree Days  
Heating Degree Days 0 14  
Month to date heating degree days 13 106  
Since 1 July heating degree days 296 413  
Cooling Degree Days 7 0  
Month to date cooling degree days 34 4  
Year to date cooling degree days 3205 2587  
Growing Degree Days 22 (Base 50)    
Moisture  
Dew Point 64 °F    
Average Humidity 76    
Maximum Humidity 93    
Minimum Humidity 58    
Precipitation  
Precipitation 0.00 in 0.15 in 2.10 in (1960)
Month to date precipitation T 1.24  
Year to date precipitation 38.72 45.75  
Snow  
Snow 0.00 in - - ()
Month to date snowfall 0.0  
Since 1 July snowfall 0.0  
Snow Depth 0.00 in    
Sea Level Pressure  
Sea Level Pressure 29.88 in    
Wind  
Wind Speed 5 mph (South)    
Max Wind Speed 12 mph    
Max Gust Speed 16 mph    
Visibility 6 miles    
Events Fog    
T = Trace of Precipitation, MM = Missing Value Source: NWS Daily Summary

Daily Weather History Graph

Daily Weather History Graph

Search for Another Location

Airport or City:

Trip Planner

Search our weather history database for the weather conditions in past years. The results will help you decide how hot, cold, wet, or windy it might be!

Date:

Astronomy

Dec. 08, 2012 Rise Set
Actual Time 7:05 AM CST 5:16 PM CST
Civil Twilight 6:39 AM CST 5:43 PM CST
Nautical Twilight 6:09 AM CST 6:13 PM CST
Astronomical Twilight 5:39 AM CST 6:42 PM CST
Moon 1:47 AM CST (12/8) 1:32 PM CST (12/8)
Length of Visible Light 11h 03m
Length of Day
10h 10m
Waning Crescent, 28% of the Moon is Illuminated
Dec 8
Waning Crescent
Dec 13
New
Dec 19
First Quarter
Dec 28
Full
Jan 4
Last Quarter

Hourly Weather History & Observations

Time (CST) Temp. Dew Point Humidity Pressure Visibility Wind Dir Wind Speed Gust Speed Precip Events Conditions
12:53 AM 64.9 °F 63.0 °F 93% 29.86 in 4.0 mi SSE 5.8 mph - N/A   Overcast
1:09 AM 66.2 °F 62.6 °F 88% 29.87 in 2.5 mi SSE 4.6 mph - N/A   Overcast
1:23 AM 66.2 °F 62.6 °F 88% 29.87 in 1.8 mi SSE 4.6 mph - N/A   Overcast
1:53 AM 66.0 °F 63.0 °F 90% 29.86 in 1.2 mi Calm Calm - 0.01 in   Overcast
2:06 AM 66.2 °F 64.4 °F 94% 29.87 in 2.5 mi Calm Calm - N/A   Overcast
2:19 AM 66.2 °F 64.4 °F 94% 29.87 in 3.0 mi Calm Calm - N/A   Overcast
3:29 AM 66.2 °F 64.4 °F 94% 29.88 in 1.8 mi Calm Calm - N/A   Overcast
3:53 AM 66.0 °F 64.0 °F 93% 29.87 in 0.5 mi Calm Calm - N/A Fog Fog
4:11 AM 66.2 °F 64.4 °F 94% 29.88 in 0.2 mi Calm Calm - N/A Fog Fog
4:53 AM 66.2 °F 64.4 °F 94% 29.88 in 0.2 mi Calm Calm - N/A Fog Fog
5:53 AM 66.2 °F 62.6 °F 88% 29.89 in 0.5 mi SE 3.5 mph - N/A Fog Fog
6:53 AM 64.9 °F 63.0 °F 93% 29.89 in 0.2 mi East 3.5 mph - N/A Fog Fog
7:15 AM 66.2 °F 62.6 °F 88% 29.90 in 0.5 mi SE 3.5 mph - N/A Fog Fog
7:53 AM 66.0 °F 64.0 °F 93% 29.90 in 0.2 mi SE 4.6 mph - N/A Fog Fog
8:53 AM 66.9 °F 64.9 °F 93% 29.92 in 0.5 mi South 5.8 mph - N/A Fog Fog
9:06 AM 68.0 °F 64.4 °F 88% 29.93 in 1.5 mi SSE 5.8 mph - N/A   Overcast
9:19 AM 68.0 °F 66.2 °F 94% 29.93 in 3.0 mi SSE 6.9 mph - N/A   Overcast
9:53 AM 69.1 °F 66.0 °F 90% 29.93 in 8.0 mi South 4.6 mph - N/A   Overcast
10:08 AM 69.8 °F 66.2 °F 88% 29.93 in 9.0 mi South 3.5 mph - N/A   Overcast
10:41 AM 73.4 °F 66.2 °F 78% 29.93 in 10.0 mi Variable 4.6 mph - N/A   Mostly Cloudy
10:50 AM 73.4 °F 66.2 °F 78% 29.93 in 10.0 mi SSE 5.8 mph - N/A   Overcast
10:53 AM 73.0 °F 66.0 °F 79% 29.92 in 10.0 mi South 8.1 mph - N/A   Mostly Cloudy
11:01 AM 73.4 °F 64.4 °F 73% 29.93 in 10.0 mi SSE 4.6 mph - N/A   Mostly Cloudy
11:09 AM 73.4 °F 64.4 °F 73% 29.92 in 10.0 mi South 3.5 mph - N/A   Overcast
11:20 AM 73.4 °F 64.4 °F 73% 29.92 in 10.0 mi WSW 4.6 mph - N/A   Mostly Cloudy
11:33 AM 73.4 °F 64.4 °F 73% 29.91 in 10.0 mi WSW 6.9 mph - N/A   Mostly Cloudy
11:53 AM 75.9 °F 64.9 °F 69% 29.89 in 10.0 mi Variable 5.8 mph - N/A   Scattered Clouds
12:27 PM 75.2 °F 64.4 °F 69% 29.88 in 10.0 mi WSW 9.2 mph - N/A   Mostly Cloudy
12:43 PM 78.8 °F 62.6 °F 57% 29.87 in 10.0 mi SSW 9.2 mph - N/A   Scattered Clouds
12:53 PM 78.1 °F 63.0 °F 60% 29.86 in 10.0 mi SW 9.2 mph - N/A   Partly Cloudy
1:53 PM 78.1 °F 63.0 °F 60% 29.84 in 10.0 mi WSW 10.4 mph - N/A   Clear
2:53 PM 79.0 °F 62.1 °F 56% 29.83 in 10.0 mi SSW 6.9 mph - N/A   Partly Cloudy
3:53 PM 78.1 °F 62.1 °F 58% 29.82 in 10.0 mi SSE 3.5 mph - N/A   Clear
4:53 PM 73.9 °F 61.0 °F 64% 29.83 in 10.0 mi SSE 3.5 mph - N/A   Partly Cloudy
5:53 PM 70.0 °F 62.1 °F 76% 29.83 in 10.0 mi SSE 4.6 mph - N/A   Clear
7:53 PM 69.1 °F 64.0 °F 84% 29.85 in 10.0 mi SE 6.9 mph - N/A   Clear
8:53 PM 70.0 °F 64.0 °F 81% 29.85 in 10.0 mi South 8.1 mph - N/A   Clear
9:53 PM 70.0 °F 64.9 °F 84% 29.86 in 10.0 mi South 8.1 mph - N/A   Partly Cloudy
10:13 PM 69.8 °F 66.2 °F 88% 29.87 in 10.0 mi South 6.9 mph - N/A   Mostly Cloudy
11:28 PM 69.8 °F 66.2 °F 88% 29.88 in 10.0 mi South 5.8 mph - N/A   Mostly Cloudy
11:53 PM 70.0 °F 66.0 °F 87% 29.86 in 10.0 mi South 8.1 mph - N/A   Overcast